Owatonna, MN

8:11 PM CDT on July 23, 2017 (GMT -0500)
Owatonna Degner Regional

Weather History for KOWA - November, 2013

Change the Weather History Date:

Monday, November 11, 2013

  Actual Average Record
Temperature  
Mean Temperature 24 °F -  
Max Temperature 39 °F 41 °F 65 °F (1964)
Min Temperature 10 °F 25 °F -4 °F (1986)
Degree Days  
Heating Degree Days 40    
Moisture  
Dew Point 17 °F    
Average Humidity 71    
Maximum Humidity 93    
Minimum Humidity 54    
Precipitation  
Precipitation 0.00 in - - ()
Sea Level Pressure  
Sea Level Pressure 30.39 in    
Wind  
Wind Speed 12 mph (NNW)    
Max Wind Speed 20 mph    
Max Gust Speed 25 mph    
Visibility 9 miles    
Events Snow    
Averages and records for this station are not official NWS values.
T = Trace of Precipitation, MM = Missing Value Source: NWS Daily Summary

Daily Weather History Graph

Daily Weather History Graph

Search for Another Location

Airport or City:

Trip Planner

Search our weather history database for the weather conditions in past years. The results will help you decide how hot, cold, wet, or windy it might be!

Date:

Astronomy

Nov. 11, 2013 Rise Set
Actual Time 7:03 AM CST 4:50 PM CST
Civil Twilight 6:32 AM CST 5:21 PM CST
Nautical Twilight 5:57 AM CST 5:55 PM CST
Astronomical Twilight 5:23 AM CST 6:29 PM CST
Moon 1:43 PM CST (11/11) 12:36 AM CST (11/11)
Length of Visible Light 10h 48m
Length of Day
9h 46m
Waxing Gibbous, 66% of the Moon is Illuminated
Nov 11
Waxing Gibbous
Nov 17
Full
Nov 25
Last Quarter
Dec 2
New
Dec 9
First Quarter

Hourly Weather History & Observations

Time (CST) Temp. Windchill Dew Point Humidity Pressure Visibility Wind Dir Wind Speed Gust Speed Precip Events Conditions
12:14 AM 39.2 °F 32.5 °F 30.2 °F 70% 30.08 in 10.0 mi West 10.4 mph - N/A   Overcast
12:34 AM 39.2 °F 33.0 °F 30.2 °F 70% 30.10 in 10.0 mi WNW 9.2 mph - N/A   Overcast
12:54 AM 37.4 °F 31.4 °F 30.2 °F 75% 30.11 in 10.0 mi NW 8.1 mph - N/A   Overcast
1:14 AM 37.4 °F 32.1 °F 30.2 °F 75% 30.10 in 10.0 mi NW 6.9 mph - N/A   Overcast
1:34 AM 37.4 °F 33.8 °F 30.2 °F 75% 30.11 in 10.0 mi NW 4.6 mph - N/A   Overcast
1:54 AM 37.4 °F 30.8 °F 30.2 °F 75% 30.11 in 10.0 mi NW 9.2 mph - N/A   Overcast
2:14 AM 37.4 °F 30.8 °F 30.2 °F 75% 30.12 in 10.0 mi NNW 9.2 mph - N/A   Overcast
2:34 AM 37.4 °F 28.9 °F 30.2 °F 75% 30.13 in 10.0 mi NNW 13.8 mph - N/A   Light Drizzle
2:54 AM 37.4 °F 30.3 °F 30.2 °F 75% 30.13 in 10.0 mi NNW 10.4 mph - N/A   Mostly Cloudy
3:14 AM 37.4 °F 29.3 °F 30.2 °F 75% 30.14 in 10.0 mi NNW 12.7 mph - N/A   Mostly Cloudy
3:34 AM 35.6 °F 26.2 °F 30.2 °F 81% 30.14 in 7.0 mi North 15.0 mph - N/A Snow Light Snow
3:54 AM 35.6 °F 26.6 °F 30.2 °F 81% 30.15 in 7.0 mi NNW 13.8 mph 21.9 mph N/A   Mostly Cloudy
4:14 AM 33.8 °F 25.3 °F 30.2 °F 87% 30.17 in 4.0 mi North 11.5 mph 17.3 mph N/A Snow Light Snow
4:34 AM 33.8 °F 25.8 °F 30.2 °F 87% 30.18 in 2.5 mi NNW 10.4 mph - N/A Snow Light Snow
4:54 AM 33.8 °F 23.9 °F 30.2 °F 87% 30.19 in 2.0 mi NW 15.0 mph 24.2 mph N/A Snow Light Snow
5:14 AM 32.0 °F 20.8 °F 30.2 °F 93% 30.21 in 1.2 mi NNW 17.3 mph - N/A Snow Light Snow
5:34 AM 28.4 °F 16.6 °F 26.6 °F 93% 30.22 in 1.0 mi NNW 16.1 mph - N/A Snow Snow
5:54 AM 28.4 °F 17.5 °F 24.8 °F 86% 30.23 in 1.0 mi NNW 13.8 mph - N/A Snow Snow
6:14 AM 28.4 °F 16.2 °F 24.8 °F 86% 30.24 in 1.8 mi NNW 17.3 mph 20.7 mph N/A Snow Light Snow
6:34 AM 26.6 °F 13.8 °F 24.8 °F 93% 30.25 in 2.0 mi North 17.3 mph 21.9 mph N/A Snow Light Snow
6:54 AM 26.6 °F 16.8 °F 21.2 °F 80% 30.25 in 10.0 mi NNW 10.4 mph - N/A   Scattered Clouds
7:14 AM 26.6 °F 13.1 °F 17.6 °F 69% 30.28 in 10.0 mi NNW 19.6 mph - N/A   Scattered Clouds
7:34 AM 26.6 °F 14.7 °F 15.8 °F 64% 30.29 in 10.0 mi NNW 15.0 mph - N/A   Scattered Clouds
7:54 AM 26.6 °F 13.8 °F 15.8 °F 64% 30.30 in 10.0 mi NNW 17.3 mph 21.9 mph N/A   Scattered Clouds
8:14 AM 26.6 °F 14.3 °F 15.8 °F 64% 30.31 in 10.0 mi North 16.1 mph 20.7 mph N/A   Clear
8:34 AM 24.8 °F 12.4 °F 15.8 °F 69% 30.32 in 10.0 mi NNW 15.0 mph - N/A   Clear
8:54 AM 24.8 °F 10.7 °F 14.0 °F 64% 30.33 in 10.0 mi NNW 19.6 mph - N/A   Clear
9:14 AM 24.8 °F 10.7 °F 14.0 °F 64% 30.34 in 10.0 mi NNW 19.6 mph 24.2 mph N/A   Clear
9:34 AM 24.8 °F 11.5 °F 14.0 °F 64% 30.35 in 10.0 mi NNW 17.3 mph - N/A   Clear
9:54 AM 23.0 °F 8.3 °F 14.0 °F 68% 30.36 in 10.0 mi NNW 19.6 mph 25.3 mph N/A   Clear
10:14 AM 23.0 °F 9.2 °F 15.8 °F 74% 30.37 in 10.0 mi NNW 17.3 mph - N/A   Clear
10:34 AM 23.0 °F 10.1 °F 15.8 °F 74% 30.38 in 10.0 mi North 15.0 mph - N/A   Scattered Clouds
10:54 AM 21.2 °F 6.8 °F 12.2 °F 68% 30.39 in 10.0 mi North 17.3 mph - N/A   Scattered Clouds
11:14 AM 23.0 °F 10.1 °F 14.0 °F 68% 30.40 in 10.0 mi North 15.0 mph 19.6 mph N/A   Clear
11:34 AM 23.0 °F 9.2 °F 12.2 °F 63% 30.41 in 10.0 mi North 17.3 mph 23.0 mph N/A   Clear
11:54 AM 23.0 °F 10.1 °F 14.0 °F 68% 30.41 in 10.0 mi NNW 15.0 mph - N/A   Scattered Clouds
12:14 PM 23.0 °F 9.2 °F 12.2 °F 63% 30.41 in 10.0 mi North 17.3 mph - N/A   Scattered Clouds
12:34 PM 24.8 °F 11.9 °F 12.2 °F 59% 30.41 in 10.0 mi NNW 16.1 mph 23.0 mph N/A   Clear
12:54 PM 24.8 °F 11.5 °F 14.0 °F 64% 30.41 in 10.0 mi NNW 17.3 mph - N/A   Clear
1:14 PM 24.8 °F 11.5 °F 14.0 °F 64% 30.42 in 10.0 mi NNW 17.3 mph - N/A   Scattered Clouds
1:34 PM 24.8 °F 12.4 °F 12.2 °F 59% 30.43 in 10.0 mi NNW 15.0 mph - N/A   Scattered Clouds
1:54 PM 23.0 °F 9.6 °F 12.2 °F 63% 30.43 in 10.0 mi North 16.1 mph - N/A   Clear
2:14 PM 23.0 °F 10.6 °F 12.2 °F 63% 30.44 in 10.0 mi NW 13.8 mph - N/A   Clear
2:34 PM 24.8 °F 12.4 °F 12.2 °F 59% 30.45 in 10.0 mi NNW 15.0 mph - N/A   Clear
2:54 PM 24.8 °F 11.5 °F 12.2 °F 59% 30.46 in 10.0 mi NW 17.3 mph - N/A   Scattered Clouds
3:14 PM 24.8 °F 12.4 °F 12.2 °F 59% 30.46 in 10.0 mi NW 15.0 mph 20.7 mph N/A   Scattered Clouds
3:34 PM 24.8 °F 12.9 °F 12.2 °F 59% 30.47 in 10.0 mi NNW 13.8 mph - N/A   Clear
3:54 PM 24.8 °F 13.4 °F 12.2 °F 59% 30.48 in 10.0 mi NNW 12.7 mph - N/A   Clear
4:14 PM 24.8 °F 11.9 °F 10.4 °F 54% 30.49 in 10.0 mi NW 16.1 mph - N/A   Clear
4:34 PM 23.0 °F 11.1 °F 10.4 °F 59% 30.50 in 10.0 mi NNW 12.7 mph - N/A   Clear
4:54 PM 21.2 °F 9.5 °F 12.2 °F 68% 30.51 in 10.0 mi NW 11.5 mph - N/A   Clear
5:14 PM 21.2 °F 9.5 °F 10.4 °F 63% 30.52 in 10.0 mi NNW 11.5 mph - N/A   Clear
5:34 PM 21.2 °F 10.9 °F 10.4 °F 63% 30.53 in 10.0 mi NNW 9.2 mph - N/A   Clear
5:54 PM 19.4 °F 7.9 °F 10.4 °F 68% 30.54 in 10.0 mi NNW 10.4 mph - N/A   Clear
6:14 PM 19.4 °F 7.9 °F 10.4 °F 68% 30.55 in 10.0 mi NW 10.4 mph - N/A   Clear
6:34 PM 19.4 °F 7.2 °F 10.4 °F 68% 30.56 in 10.0 mi NW 11.5 mph - N/A   Clear
6:54 PM 19.4 °F 6.6 °F 10.4 °F 68% 30.57 in 10.0 mi NW 12.7 mph - N/A   Clear
7:14 PM 19.4 °F 7.2 °F 10.4 °F 68% 30.58 in 10.0 mi NW 11.5 mph - N/A   Clear
7:34 PM 19.4 °F 7.2 °F 10.4 °F 68% 30.59 in 10.0 mi NW 11.5 mph - N/A   Clear
7:54 PM 17.6 °F 5.7 °F 10.4 °F 73% 30.59 in 10.0 mi NW 10.4 mph - N/A   Clear
8:14 PM 17.6 °F 5.7 °F 10.4 °F 73% 30.60 in 10.0 mi NW 10.4 mph - N/A   Clear
8:34 PM 17.6 °F 5.7 °F 10.4 °F 73% 30.61 in 10.0 mi NW 10.4 mph - N/A   Clear
8:54 PM 17.6 °F 5.0 °F 10.4 °F 73% 30.62 in 10.0 mi NNW 11.5 mph - N/A   Clear
9:14 PM 17.6 °F 5.7 °F 10.4 °F 73% 30.64 in 10.0 mi NNW 10.4 mph - N/A   Clear
9:34 PM 17.6 °F 5.0 °F 10.4 °F 73% 30.64 in 10.0 mi NNW 11.5 mph - N/A   Clear
9:54 PM 17.6 °F 5.0 °F 10.4 °F 73% 30.65 in 10.0 mi NNW 11.5 mph - N/A   Clear
10:14 PM 15.8 °F 6.1 °F 8.6 °F 73% 30.66 in 10.0 mi NNW 6.9 mph - N/A   Clear
10:34 PM 15.8 °F 7.2 °F 8.6 °F 73% 30.66 in 10.0 mi NW 5.8 mph - N/A   Clear
10:54 PM 12.2 °F 4.3 °F 8.6 °F 85% 30.67 in 10.0 mi NW 4.6 mph - N/A   Clear
11:14 PM 12.2 °F 6.1 °F 8.6 °F 85% 30.68 in 10.0 mi WNW 3.5 mph - N/A   Clear
11:34 PM 10.4 °F 2.2 °F 6.8 °F 85% 30.68 in 10.0 mi NW 4.6 mph - N/A   Clear
11:54 PM 10.4 °F 2.2 °F 6.8 °F 85% 30.69 in 10.0 mi WNW 4.6 mph - N/A   Clear